Time,TemperatureF,DewpointF,PressureIn,WindDirection,WindDirectionDegrees,WindSpeedMPH,WindSpeedGustMPH,Humidity,HourlyPrecipIn,Conditions,Clouds,dailyrainin,SolarRadiationWatts/m^2,SoftwareType,DateUTC
2013-05-06 00:06:00,46.8,46.0,29.79,NNW,340,0.0,3.0,96,0.16,,,0.01,0,weatherlink.com 1.10,2013-05-06 04:06:00,
2013-05-06 00:21:00,46.4,45.0,29.78,NW,311,0.0,3.0,96,0.14,,,0.04,0,weatherlink.com 1.10,2013-05-06 04:21:00,
2013-05-06 00:36:00,46.1,45.0,29.76,NW,311,1.0,2.0,97,0.11,,,0.06,0,weatherlink.com 1.10,2013-05-06 04:36:00,
2013-05-06 00:51:00,45.8,45.0,29.77,NW,315,0.0,2.0,96,0.08,,,0.07,0,weatherlink.com 1.10,2013-05-06 04:51:00,
2013-05-06 01:06:00,45.6,45.0,29.76,NW,315,0.0,1.0,96,0.09,,,0.10,0,weatherlink.com 1.10,2013-05-06 05:06:00,
2013-05-06 01:21:00,45.6,45.0,29.76,WNW,285,0.0,1.0,97,0.10,,,0.14,0,weatherlink.com 1.10,2013-05-06 05:21:00,
2013-05-06 01:36:00,45.5,45.0,29.75,WNW,285,0.0,1.0,97,0.09,,,0.15,0,weatherlink.com 1.10,2013-05-06 05:36:00,
2013-05-06 01:52:00,45.5,45.0,29.73,WNW,285,0.0,0.0,97,0.08,,,0.15,0,weatherlink.com 1.10,2013-05-06 05:52:00,
2013-05-06 02:07:00,45.3,45.0,29.73,WNW,285,0.0,3.0,97,0.04,,,0.15,0,weatherlink.com 1.10,2013-05-06 06:07:00,
2013-05-06 02:22:00,45.3,45.0,29.74,WNW,285,0.0,0.0,97,0.01,,,0.15,0,weatherlink.com 1.10,2013-05-06 06:22:00,
2013-05-06 02:37:00,45.3,45.0,29.74,WNW,285,0.0,1.0,97,0.00,,,0.15,0,weatherlink.com 1.10,2013-05-06 06:37:00,
2013-05-06 02:52:00,45.4,45.0,29.74,WNW,285,0.0,0.0,98,0.00,,,0.15,0,weatherlink.com 1.10,2013-05-06 06:52:00,
2013-05-06 03:07:00,45.2,44.0,29.74,WNW,285,0.0,1.0,97,0.00,,,0.15,0,weatherlink.com 1.10,2013-05-06 07:07:00,
2013-05-06 03:22:00,44.9,44.0,29.74,WNW,285,0.0,1.0,97,0.00,,,0.15,0,weatherlink.com 1.10,2013-05-06 07:22:00,
2013-05-06 03:37:00,45.0,45.0,29.74,WNW,285,0.0,0.0,98,0.00,,,0.15,0,weatherlink.com 1.10,2013-05-06 07:37:00,
2013-05-06 03:52:00,45.2,45.0,29.75,WNW,285,0.0,2.0,98,0.01,,,0.16,0,weatherlink.com 1.10,2013-05-06 07:52:00,
2013-05-06 04:07:00,45.0,45.0,29.75,WNW,285,0.0,0.0,98,0.01,,,0.16,0,weatherlink.com 1.10,2013-05-06 08:07:00,
2013-05-06 04:22:00,44.8,44.0,29.76,WNW,285,0.0,0.0,97,0.01,,,0.16,0,weatherlink.com 1.10,2013-05-06 08:22:00,
2013-05-06 04:37:00,44.8,44.0,29.75,WNW,285,0.0,0.0,98,0.01,,,0.16,0,weatherlink.com 1.10,2013-05-06 08:37:00,
2013-05-06 04:52:00,44.6,44.0,29.75,WNW,285,0.0,0.0,97,0.00,,,0.16,0,weatherlink.com 1.10,2013-05-06 08:52:00,
2013-05-06 05:07:00,44.1,43.0,29.75,WNW,285,0.0,1.0,97,0.00,,,0.16,0,weatherlink.com 1.10,2013-05-06 09:07:00,
2013-05-06 05:22:00,43.5,43.0,29.75,WNW,285,0.0,1.0,97,0.00,,,0.16,0,weatherlink.com 1.10,2013-05-06 09:22:00,
2013-05-06 05:37:00,43.1,42.0,29.76,WNW,285,0.0,0.0,97,0.00,,,0.16,0,weatherlink.com 1.10,2013-05-06 09:37:00,
2013-05-06 05:52:00,42.5,42.0,29.76,WNW,285,0.0,0.0,97,0.00,,,0.16,0,weatherlink.com 1.10,2013-05-06 09:52:00,
2013-05-06 06:07:00,42.4,42.0,29.76,West,263,1.0,2.0,97,0.00,,,0.16,0,weatherlink.com 1.10,2013-05-06 10:07:00,
2013-05-06 06:22:00,42.4,42.0,29.77,SW,215,0.0,2.0,98,0.00,,,0.16,0,weatherlink.com 1.10,2013-05-06 10:22:00,
2013-05-06 06:37:00,42.4,42.0,29.77,SW,215,0.0,2.0,98,0.00,,,0.16,0,weatherlink.com 1.10,2013-05-06 10:37:00,
2013-05-06 06:52:00,42.7,42.0,29.77,SW,215,0.0,1.0,98,0.00,,,0.16,9,weatherlink.com 1.10,2013-05-06 10:52:00,
2013-05-06 07:07:00,42.7,42.0,29.78,SW,215,0.0,2.0,98,0.00,,,0.16,18,weatherlink.com 1.10,2013-05-06 11:07:00,
2013-05-06 07:22:00,42.3,42.0,29.78,SW,215,0.0,0.0,98,0.00,,,0.16,44,weatherlink.com 1.10,2013-05-06 11:22:00,
2013-05-06 07:37:00,42.6,42.0,29.78,SW,215,0.0,1.0,98,0.00,,,0.16,63,weatherlink.com 1.10,2013-05-06 11:37:00,
2013-05-06 07:52:00,43.3,43.0,29.79,SW,215,0.0,3.0,98,0.00,,,0.16,67,weatherlink.com 1.10,2013-05-06 11:52:00,
2013-05-06 08:07:00,44.2,44.0,29.79,SW,215,0.0,1.0,99,0.00,,,0.16,100,weatherlink.com 1.10,2013-05-06 12:07:00,
2013-05-06 08:22:00,45.0,45.0,29.80,SW,215,0.0,1.0,99,0.00,,,0.16,91,weatherlink.com 1.10,2013-05-06 12:22:00,
2013-05-06 08:37:00,45.7,46.0,29.80,WNW,299,0.0,0.0,99,0.00,,,0.16,109,weatherlink.com 1.10,2013-05-06 12:37:00,
2013-05-06 08:52:00,46.0,46.0,29.81,NW,319,2.0,4.0,98,0.00,,,0.16,98,weatherlink.com 1.10,2013-05-06 12:52:00,
2013-05-06 09:07:00,46.7,45.0,29.81,NW,319,0.0,3.0,95,0.00,,,0.16,125,weatherlink.com 1.10,2013-05-06 13:07:00,
2013-05-06 09:22:00,47.5,46.0,29.81,NW,319,3.0,3.0,95,0.00,,,0.16,135,weatherlink.com 1.10,2013-05-06 13:22:00,
2013-05-06 09:37:00,48.2,46.0,29.81,NW,319,1.0,3.0,93,0.00,,,0.16,162,weatherlink.com 1.10,2013-05-06 13:37:00,
2013-05-06 09:52:00,49.3,47.0,29.82,NW,319,0.0,5.0,90,0.00,,,0.16,158,weatherlink.com 1.10,2013-05-06 13:52:00,
2013-05-06 10:07:00,49.5,46.0,29.82,NW,319,0.0,3.0,88,0.00,,,0.16,156,weatherlink.com 1.10,2013-05-06 14:07:00,
2013-05-06 10:22:00,49.9,46.0,29.82,NW,319,0.0,3.0,87,0.00,,,0.16,153,weatherlink.com 1.10,2013-05-06 14:22:00,
2013-05-06 10:37:00,50.5,46.0,29.82,WNW,301,1.0,2.0,85,0.00,,,0.16,225,weatherlink.com 1.10,2013-05-06 14:37:00,
2013-05-06 10:53:00,51.4,46.0,29.83,NW,306,0.0,8.0,81,0.00,,,0.16,243,weatherlink.com 1.10,2013-05-06 14:53:00,
2013-05-06 11:08:00,51.9,46.0,29.83,NW,304,0.0,6.0,81,0.00,,,0.16,250,weatherlink.com 1.10,2013-05-06 15:08:00,
2013-05-06 11:23:00,52.2,46.0,29.83,WNW,286,1.0,6.0,79,0.00,,,0.16,348,weatherlink.com 1.10,2013-05-06 15:23:00,
2013-05-06 11:38:00,52.9,46.0,29.84,NW,316,0.0,3.0,77,0.00,,,0.16,230,weatherlink.com 1.10,2013-05-06 15:38:00,
2013-05-06 11:53:00,52.8,47.0,29.83,WNW,303,2.0,7.0,81,0.00,,,0.16,292,weatherlink.com 1.10,2013-05-06 15:53:00,
2013-05-06 12:08:00,52.7,46.0,29.83,WNW,289,0.0,7.0,77,0.00,,,0.16,84,weatherlink.com 1.10,2013-05-06 16:08:00,
2013-05-06 12:23:00,52.6,46.0,29.83,WNW,292,0.0,2.0,78,0.00,,,0.16,243,weatherlink.com 1.10,2013-05-06 16:23:00,
2013-05-06 12:38:00,53.4,46.0,29.82,WNW,293,0.0,6.0,75,0.00,,,0.16,336,weatherlink.com 1.10,2013-05-06 16:38:00,
2013-05-06 12:53:00,53.8,45.0,29.82,WNW,292,2.0,5.0,73,0.00,,,0.16,197,weatherlink.com 1.10,2013-05-06 16:53:00,
2013-05-06 13:08:00,53.6,45.0,29.83,ESE,115,0.0,3.0,73,0.00,,,0.16,104,weatherlink.com 1.10,2013-05-06 17:08:00,
2013-05-06 13:23:00,53.2,47.0,29.82,South,191,1.0,3.0,79,0.00,,,0.16,93,weatherlink.com 1.10,2013-05-06 17:23:00,
2013-05-06 13:38:00,53.1,46.0,29.82,South,191,0.0,2.0,78,0.00,,,0.16,95,weatherlink.com 1.10,2013-05-06 17:38:00,
2013-05-06 13:53:00,52.9,46.0,29.83,WNW,299,3.0,5.0,78,0.00,,,0.16,183,weatherlink.com 1.10,2013-05-06 17:53:00,
2013-05-06 14:08:00,53.0,47.0,29.83,WNW,296,4.0,4.0,79,0.00,,,0.16,155,weatherlink.com 1.10,2013-05-06 18:08:00,
2013-05-06 14:23:00,52.6,47.0,29.83,NW,313,0.0,4.0,82,0.00,,,0.16,207,weatherlink.com 1.10,2013-05-06 18:23:00,
2013-05-06 14:38:00,52.9,47.0,29.84,WNW,302,0.0,4.0,79,0.00,,,0.16,128,weatherlink.com 1.10,2013-05-06 18:38:00,
2013-05-06 14:53:00,52.8,47.0,29.84,NW,304,0.0,2.0,81,0.00,,,0.16,83,weatherlink.com 1.10,2013-05-06 18:53:00,
2013-05-06 15:08:00,52.4,46.0,29.84,WNW,286,3.0,3.0,80,0.00,,,0.16,264,weatherlink.com 1.10,2013-05-06 19:08:00,
2013-05-06 15:23:00,52.5,47.0,29.84,WNW,301,1.0,4.0,81,0.00,,,0.16,258,weatherlink.com 1.10,2013-05-06 19:23:00,
2013-05-06 15:38:00,52.8,47.0,29.84,NW,315,0.0,5.0,81,0.00,,,0.16,148,weatherlink.com 1.10,2013-05-06 19:38:00,
2013-05-06 15:53:00,52.6,47.0,29.84,NW,316,0.0,4.0,80,0.00,,,0.16,151,weatherlink.com 1.10,2013-05-06 19:53:00,
2013-05-06 16:08:00,52.4,47.0,29.84,NW,316,0.0,2.0,82,0.00,,,0.16,86,weatherlink.com 1.10,2013-05-06 20:08:00,
2013-05-06 16:23:00,52.0,47.0,29.83,NW,316,0.0,2.0,84,0.00,,,0.16,111,weatherlink.com 1.10,2013-05-06 20:23:00,
2013-05-06 16:38:00,51.5,47.0,29.83,NW,323,0.0,4.0,84,0.00,,,0.16,97,weatherlink.com 1.10,2013-05-06 20:38:00,
2013-05-06 16:53:00,51.7,48.0,29.84,NW,323,1.0,2.0,87,0.00,,,0.16,218,weatherlink.com 1.10,2013-05-06 20:53:00,
2013-05-06 17:08:00,52.5,48.0,29.83,NW,321,2.0,3.0,85,0.00,,,0.16,127,weatherlink.com 1.10,2013-05-06 21:08:00,
2013-05-06 17:23:00,52.4,48.0,29.83,NW,321,0.0,3.0,84,0.00,,,0.16,79,weatherlink.com 1.10,2013-05-06 21:23:00,
2013-05-06 17:38:00,52.2,48.0,29.83,NW,321,1.0,2.0,85,0.00,,,0.16,109,weatherlink.com 1.10,2013-05-06 21:38:00,
2013-05-06 17:53:00,51.9,48.0,29.84,NW,321,2.0,3.0,85,0.00,,,0.16,28,weatherlink.com 1.10,2013-05-06 21:53:00,
2013-05-06 18:08:00,51.5,47.0,29.84,NW,321,1.0,3.0,84,0.00,,,0.16,49,weatherlink.com 1.10,2013-05-06 22:08:00,
2013-05-06 18:23:00,51.1,48.0,29.84,NW,321,0.0,2.0,88,0.00,,,0.16,84,weatherlink.com 1.10,2013-05-06 22:23:00,
2013-05-06 18:38:00,50.9,48.0,29.84,NW,321,1.0,3.0,88,0.00,,,0.16,53,weatherlink.com 1.10,2013-05-06 22:38:00,
2013-05-06 18:53:00,50.9,48.0,29.84,NW,321,0.0,2.0,88,0.00,,,0.16,37,weatherlink.com 1.10,2013-05-06 22:53:00,
2013-05-06 19:08:00,50.9,48.0,29.84,NW,321,0.0,0.0,89,0.00,,,0.16,39,weatherlink.com 1.10,2013-05-06 23:08:00,
2013-05-06 19:38:00,51.0,48.0,29.85,NW,321,0.0,0.0,90,0.00,,,0.16,14,weatherlink.com 1.10,2013-05-06 23:38:00,
2013-05-06 19:53:00,50.9,48.0,29.85,NW,321,0.0,0.0,90,0.00,,,0.16,9,weatherlink.com 1.10,2013-05-06 23:53:00,
2013-05-06 20:08:00,50.6,48.0,29.85,NW,321,0.0,0.0,89,0.00,,,0.16,7,weatherlink.com 1.10,2013-05-07 00:08:00,
2013-05-06 20:23:00,50.3,48.0,29.85,NW,321,0.0,0.0,91,0.00,,,0.16,0,weatherlink.com 1.10,2013-05-07 00:23:00,
2013-05-06 20:38:00,50.1,48.0,29.85,NW,321,0.0,0.0,92,0.00,,,0.16,0,weatherlink.com 1.10,2013-05-07 00:38:00,
2013-05-06 20:53:00,49.5,47.0,29.85,NW,321,1.0,1.0,91,0.00,,,0.16,0,weatherlink.com 1.10,2013-05-07 00:53:00,
2013-05-06 21:08:00,48.8,47.0,29.86,NW,321,1.0,2.0,92,0.00,,,0.16,0,weatherlink.com 1.10,2013-05-07 01:08:00,
2013-05-06 21:23:00,48.6,47.0,29.86,NW,321,0.0,0.0,93,0.00,,,0.16,0,weatherlink.com 1.10,2013-05-07 01:23:00,
2013-05-06 21:38:00,48.4,47.0,29.86,NW,321,0.0,1.0,93,0.00,,,0.16,0,weatherlink.com 1.10,2013-05-07 01:38:00,
2013-05-06 21:53:00,48.3,47.0,29.87,NW,321,0.0,0.0,94,0.00,,,0.16,0,weatherlink.com 1.10,2013-05-07 01:53:00,
2013-05-06 22:08:00,48.4,47.0,29.87,NW,321,0.0,1.0,94,0.00,,,0.16,0,weatherlink.com 1.10,2013-05-07 02:08:00,
2013-05-06 22:23:00,48.5,47.0,29.88,NW,321,0.0,0.0,94,0.00,,,0.16,0,weatherlink.com 1.10,2013-05-07 02:23:00,
2013-05-06 22:38:00,48.5,47.0,29.88,NW,321,0.0,1.0,94,0.00,,,0.16,0,weatherlink.com 1.10,2013-05-07 02:38:00,
2013-05-06 22:53:00,48.5,47.0,29.88,NW,321,0.0,0.0,94,0.00,,,0.16,0,weatherlink.com 1.10,2013-05-07 02:53:00,
2013-05-06 23:08:00,48.5,47.0,29.88,NW,321,0.0,0.0,95,0.00,,,0.16,0,weatherlink.com 1.10,2013-05-07 03:08:00,
2013-05-06 23:23:00,48.5,47.0,29.88,NW,321,0.0,0.0,95,0.00,,,0.16,0,weatherlink.com 1.10,2013-05-07 03:23:00,
2013-05-06 23:38:00,48.4,47.0,29.88,NW,321,0.0,0.0,95,0.00,,,0.16,0,weatherlink.com 1.10,2013-05-07 03:38:00,
2013-05-06 23:53:00,48.3,47.0,29.88,NW,321,0.0,0.0,95,0.00,,,0.16,0,weatherlink.com 1.10,2013-05-07 03:53:00,